FW2486 Weather Reports


Display with metric or nautical units.
time (UTC)temp
F
wind
direction
speed
MPH
gust
MPH
rain 1hr
in
rain 24hr
in
rain mn
in
humidity
%
barometer
mb
20260506121531 56 198 6.0 12.0 0.00 0.00 0.00 77 1020.7
20260506120038 55 188 7.0 22.0 0.00 0.00 0.00 78 1020.5
20260506114642 55 169 4.0 17.0 0.00 0.00 0.00 79 1020.3
20260506113033 55 158 6.0 12.0 0.00 0.00 0.00 79 1020.2
20260506111535 55 152 4.0 10.0 0.00 0.00 0.00 79 1020.1
20260506104530 55 158 4.0 11.0 0.00 0.00 0.00 78 1019.8
20260506103109 56 162 6.0 13.0 0.00 0.00 0.00 76 1019.7
20260506101605 57 183 7.0 18.0 0.00 0.00 0.00 76 1019.6
20260506100055 57 189 8.0 16.0 0.00 0.00 0.00 76 1019.6
20260506094537 56 193 7.0 18.0 0.00 0.00 0.00 80 1019.6
20260506093036 54 204 7.0 14.0 0.00 0.00 0.00 87 1019.5
20260506090038 49 258 1.0 4.0 0.00 0.00 0.00 92 1019.2
20260506083033 49 253 1.0 5.0 0.00 0.00 0.00 91 1019.0
20260506073038 53 270 2.0 11.0 0.00 0.00 0.00 85 1018.7
20260506071535 55 192 2.0 9.0 0.00 0.00 0.00 82 1018.6
20260506070107 56 165 2.0 9.0 0.00 0.00 0.00 82 1018.4
20260506044535 56 292 0.0 2.0 0.00 0.00 0.00 80 1017.4
20260506041531 58 261 0.0 3.0 0.00 0.00 0.00 76 1017.2
20260506040039 59 302 3.0 6.0 0.00 0.00 0.00 74 1016.9
20260506034607 60 280 4.0 7.0 0.00 0.00 0.00 73 1016.7
20260506033034 61 291 2.0 6.0 0.00 0.00 0.00 71 1016.4
20260506031531 62 171 2.0 8.0 0.00 0.00 0.00 68 1016.2
20260506030037 64 259 3.0 7.0 0.00 0.00 0.00 65 1016.0
20260506024535 66 320 7.0 15.0 0.00 0.00 0.00 62 1015.7
20260506021609 0 0 0.0 0.0 0.00 0.00 0.00 100
20260506020107 70 329 6.0 14.0 0.00 0.00 0.00 57 1015.3
20260506014536 72 309 6.0 12.0 0.00 0.00 0.00 54 1015.2
20260506013035 74 292 4.0 11.0 0.00 0.00 0.00 53 1015.1
20260506011641 74 294 3.0 8.0 0.00 0.00 0.00 52 1015.0
20260506010034 75 283 6.0 13.0 0.00 0.00 0.00 48 1015.0
20260506004542 77 226 6.0 14.0 0.00 0.00 0.00 47 1014.9
20260506003036 77 176 3.0 10.0 0.00 0.00 0.00 47 1015.0
20260506000035 76 297 5.0 6.0 0.00 0.00 0.00 51 1015.1
20260505234608 76 320 6.0 10.0 0.00 0.00 0.00 51 1015.2
20260505231536 76 316 6.0 12.0 0.00 0.00 0.00 51 1015.1
20260505230147 76 300 5.0 11.0 0.00 0.00 0.00 50 1015.3
20260505224607 76 319 5.0 9.0 0.00 0.00 0.00 50 1015.3
20260505223029 77 292 6.0 14.0 0.00 0.00 0.00 48 1015.5
20260505221606 77 271 5.0 12.0 0.00 0.00 0.00 48 1015.6
20260505220034 77 216 6.0 12.0 0.00 0.00 0.00 48 1015.7
20260505214534 77 202 6.0 11.0 0.00 0.00 0.00 49 1015.8
20260505213143 76 211 6.0 14.0 0.00 0.00 0.00 49 1015.9
20260505210030 75 212 6.0 13.0 0.00 0.00 0.00 50 1016.2
20260505204531 74 204 6.0 15.0 0.00 0.00 0.00 50 1016.2
20260505203037 74 214 6.0 13.0 0.00 0.00 0.00 51 1016.4
20260505201610 73 211 7.0 13.0 0.00 0.00 0.00 52 1016.5
20260505200041 72 204 7.0 21.0 0.00 0.00 0.00 53 1016.5
20260505194535 71 210 8.0 18.0 0.00 0.00 0.00 55 1016.6
20260505191642 70 218 6.0 10.0 0.00 0.00 0.00 56 1016.8
20260505190106 69 209 7.0 15.0 0.00 0.00 0.00 56 1016.9
20260505184535 68 207 7.0 15.0 0.00 0.00 0.00 58 1016.9
20260505183036 67 205 6.0 14.0 0.00 0.00 0.00 59 1017.0
20260505181611 67 204 8.0 16.0 0.00 0.00 0.00 59 1017.0
20260505174643 65 202 8.0 18.0 0.00 0.00 0.00 61 1017.1
20260505170106 63 206 9.0 16.0 0.00 0.00 0.00 63 1017.0
20260505164532 63 200 8.0 18.0 0.00 0.00 0.00 63 1017.0
20260505163149 63 205 8.0 21.0 0.00 0.00 0.00 62 1016.9
20260505161536 63 198 7.0 17.0 0.00 0.00 0.00 62 1016.9
20260505153028 62 200 7.0 18.0 0.00 0.00 0.00 63 1016.9
20260505124535 56 157 5.0 12.0 0.00 0.00 0.00 77 1016.2
20260505123032 57 175 5.0 11.0 0.00 0.00 0.00 77 1016.2